G1 CYXU-ZZZZ

Flight info

Callsign G1
Flight time N/A
Altitude 2000
Route CYXU/15 VFR SOUTHBOUND
Aircraft RAFL

Departure

Time 2026-04-28 01:28
Airport London International Airport (CYXU)

Arrival

Time N/A
Airport ZZZZ
Time Latitude Longitude Altitude Speed Heading
2026-04-28 01:27 43.02045 -81.13549 1485 ft 433 kts 147°
2026-04-28 01:28 42.98719 -81.10837 2184 ft 677 kts 150°
2026-04-28 01:28 42.94112 -81.07344 2590 ft 846 kts 152°
2026-04-28 01:28 42.88532 -81.03337 2681 ft 951 kts 153°
2026-04-28 01:28 42.87770 -80.97948 4435 ft 373 kts 43°
2026-04-28 01:29 42.91213 -80.94585 3517 ft 632 kts 344°
2026-04-28 01:29 42.94625 -80.97507 4424 ft 555 kts 326°
2026-04-28 01:29 42.97041 -81.01571 3564 ft 572 kts 300°
2026-04-28 01:29 42.99271 -81.05937 2217 ft 471 kts 12°
2026-04-28 01:30 42.98818 -81.04410 2284 ft 359 kts 276°
2026-04-28 01:30 43.00474 -81.08370 2706 ft 609 kts 301°
2026-04-28 01:30 43.03030 -81.14356 1470 ft 830 kts 298°
2026-04-28 01:30 43.05965 -81.21642 3857 ft 906 kts 298°
2026-04-28 01:31 43.09316 -81.27437 8237 ft 598 kts 38°
2026-04-28 01:31 43.11189 -81.27724 2870 ft 651 kts 330°
2026-04-28 01:31 43.14191 -81.31821 5967 ft 721 kts 312°
2026-04-28 01:31 43.18465 -81.35766 7160 ft 836 kts 351°
2026-04-28 01:32 43.23123 -81.38000 10761 ft 720 kts 312°
2026-04-28 01:32 43.27557 -81.43032 6685 ft 860 kts 325°
2026-04-28 01:32 43.32742 -81.47666 7109 ft 955 kts 328°
2026-04-28 01:32 43.37710 -81.52513 8958 ft 891 kts 322°
2026-04-28 01:33 43.41258 -81.57549 3803 ft 778 kts 293°
2026-04-28 01:33 43.43868 -81.63029 3085 ft 669 kts 320°
2026-04-28 01:33 43.47396 -81.66921 2682 ft 627 kts 322°
2026-04-28 01:33 43.50772 -81.70431 3187 ft 595 kts 324°
2026-04-28 01:34 43.54279 -81.73103 4448 ft 565 kts 353°
2026-04-28 01:34 43.56733 -81.71625 4947 ft 586 kts 44°
2026-04-28 01:34 43.57194 -81.67788 4556 ft 576 kts 89°
2026-04-28 01:34 43.57168 -81.62282 4772 ft 574 kts 91°
2026-04-28 01:35 43.56475 -81.56921 4899 ft 578 kts 125°
2026-04-28 01:35 43.53823 -81.52725 4640 ft 582 kts 133°
2026-04-28 01:35 43.51325 -81.48627 4915 ft 518 kts 127°
2026-04-28 01:35 43.49559 -81.44728 5049 ft 446 kts 120°
2026-04-28 01:36 43.48148 -81.40971 4079 ft 455 kts 115°
2026-04-28 01:36 43.47433 -81.37097 3614 ft 397 kts 99°
2026-04-28 01:36 43.46995 -81.33422 3599 ft 382 kts 102°
2026-04-28 01:36 43.46340 -81.29967 3426 ft 375 kts 106°
2026-04-28 01:37 43.45567 -81.26526 3064 ft 375 kts 108°
2026-04-28 01:37 43.44690 -81.23166 2787 ft 372 kts 112°
2026-04-28 01:37 43.43659 -81.19933 2813 ft 363 kts 114°
2026-04-28 01:37 43.42665 -81.16806 2987 ft 353 kts 113°
2026-04-28 01:38 43.41642 -81.13763 2979 ft 349 kts 117°
2026-04-28 01:38 43.40391 -81.10820 2157 ft 369 kts 123°
2026-04-28 01:38 43.39295 -81.07847 2194 ft 326 kts 115°
2026-04-28 01:38 43.38897 -81.05022 2251 ft 289 kts 93°
2026-04-28 01:39 43.38781 -81.02371 2226 ft 265 kts 94°
2026-04-28 01:39 43.38670 -80.99921 2125 ft 250 kts 94°
2026-04-28 01:39 43.38568 -80.97617 2080 ft 235 kts 92°
2026-04-28 01:39 43.38556 -80.95435 2013 ft 223 kts 78°
2026-04-28 01:40 43.39324 -80.93723 2003 ft 209 kts 45°
2026-04-28 01:40 43.40334 -80.92276 1979 ft 216 kts 51°
2026-04-28 01:40 43.40854 -80.90292 1972 ft 235 kts 97°
2026-04-28 01:40 43.40067 -80.88241 1984 ft 260 kts 130°
2026-04-28 01:41 43.38890 -80.86458 2153 ft 236 kts 141°
2026-04-28 01:41 43.38180 -80.84547 2167 ft 229 kts 99°
2026-04-28 01:41 43.38254 -80.82396 2084 ft 226 kts 81°
2026-04-28 01:41 43.38470 -80.80304 2951 ft 216 kts 85°
2026-04-28 01:42 43.38590 -80.78205 5159 ft 224 kts 86°
2026-04-28 01:42 43.38882 -80.76085 5255 ft 218 kts 73°
2026-04-28 01:42 43.39298 -80.74196 5322 ft 197 kts 73°
2026-04-28 01:42 43.39631 -80.72413 5273 ft 192 kts 77°
2026-04-28 01:43 43.39930 -80.70605 5063 ft 202 kts 77°
2026-04-28 01:43 43.40256 -80.68726 5012 ft 197 kts 78°
2026-04-28 01:43 43.40528 -80.66879 4850 ft 194 kts 78°
2026-04-28 01:43 43.40857 -80.65115 4536 ft 188 kts 70°
2026-04-28 01:44 43.41126 -80.63415 4207 ft 181 kts 95°
2026-04-28 01:44 43.40375 -80.62279 3958 ft 173 kts 176°
2026-04-28 01:44 43.39289 -80.62819 3717 ft 184 kts 214°
2026-04-28 01:44 43.38202 -80.64029 3767 ft 201 kts 226°
2026-04-28 01:45 43.37281 -80.65364 4059 ft 193 kts 236°
2026-04-28 01:45 43.36683 -80.66814 4445 ft 160 kts 243°
2026-04-28 01:45 43.36039 -80.67956 4456 ft 157 kts 225°
2026-04-28 01:45 43.35257 -80.69063 4342 ft 180 kts 227°
2026-04-28 01:46 43.34352 -80.70439 4380 ft 198 kts 234°
2026-04-28 01:46 43.33199 -80.71901 4731 ft 269 kts 201°
2026-04-28 01:46 43.31231 -80.71410 5326 ft 339 kts 136°
2026-04-28 01:46 43.30398 -80.68254 5854 ft 364 kts 90°
2026-04-28 01:47 43.30379 -80.64877 6231 ft 344 kts 91°
2026-04-28 01:47 43.30315 -80.61604 6417 ft 337 kts 91°
2026-04-28 01:47 43.31563 -80.59698 5834 ft 299 kts 343°
2026-04-28 01:47 43.32612 -80.61764 5007 ft 283 kts 261°
2026-04-28 01:48 43.31826 -80.64107 4468 ft 262 kts 238°
2026-04-28 01:48 43.31045 -80.66224 4346 ft 231 kts 253°
2026-04-28 01:48 43.30640 -80.68139 4458 ft 199 kts 254°
2026-04-28 01:48 43.30285 -80.69888 4274 ft 184 kts 256°
2026-04-28 01:49 43.30010 -80.71487 4155 ft 169 kts 257°
2026-04-28 01:49 43.29775 -80.73078 4004 ft 184 kts 259°
2026-04-28 01:49 43.28739 -80.74139 4273 ft 272 kts 152°
2026-04-28 01:49 43.28174 -80.72157 4586 ft 226 kts 64°
2026-04-28 01:50 43.29454 -80.71356 4132 ft 218 kts 338°
2026-04-28 01:50 43.30315 -80.72725 4052 ft 188 kts 275°
2026-04-28 01:50 43.29940 -80.74337 4002 ft 175 kts 232°
2026-04-28 01:50 43.29232 -80.75531 4047 ft 148 kts 229°
2026-04-28 01:51 43.28540 -80.76498 3669 ft 146 kts 225°
2026-04-28 01:51 43.27774 -80.77492 3207 ft 152 kts 222°
2026-04-28 01:51 43.26983 -80.78437 3097 ft 157 kts 220°
2026-04-28 01:51 43.26169 -80.79312 3004 ft 142 kts 217°
2026-04-28 01:52 43.25013 -80.79909 2970 ft 228 kts 182°
2026-04-28 01:52 43.23513 -80.78798 3389 ft 278 kts 125°
2026-04-28 01:52 43.22765 -80.76046 3200 ft 327 kts 103°
2026-04-28 01:52 43.22372 -80.73251 5278 ft 281 kts 100°
2026-04-28 01:53 43.22026 -80.70657 5831 ft 287 kts 101°
2026-04-28 01:53 43.21795 -80.68090 6129 ft 261 kts 83°
2026-04-28 01:53 43.22431 -80.65885 6337 ft 245 kts 54°
2026-04-28 01:53 43.23665 -80.64406 8546 ft 241 kts 15°
2026-04-28 01:54 43.25266 -80.64548 8549 ft 233 kts 341°
2026-04-28 01:54 43.26374 -80.65765 7841 ft 185 kts 295°
2026-04-28 01:54 43.26569 -80.67294 7433 ft 160 kts 258°
2026-04-28 01:54 43.25997 -80.68702 6947 ft 168 kts 228°
2026-04-28 01:55 43.25172 -80.69908 6443 ft 177 kts 226°
2026-04-28 01:55 43.24396 -80.71128 6093 ft 154 kts 240°
2026-04-28 01:55 43.23965 -80.72334 5690 ft 132 kts 251°
2026-04-28 01:55 43.23629 -80.73666 5301 ft 175 kts 252°
2026-04-28 01:56 43.23295 -80.75061 5216 ft 146 kts 252°
2026-04-28 01:56 43.22983 -80.76392 5067 ft 148 kts 252°
2026-04-28 01:56 43.22626 -80.77944 5040 ft 196 kts 253°
2026-04-28 01:56 43.22254 -80.79671 5043 ft 176 kts 254°
2026-04-28 01:57 43.21949 -80.81089 4765 ft 141 kts 254°
2026-04-28 01:57 43.21659 -80.82445 4791 ft 154 kts 253°
2026-04-28 01:57 43.21342 -80.83815 4842 ft 140 kts 253°
2026-04-28 01:57 43.21027 -80.85180 4731 ft 174 kts 252°
2026-04-28 01:58 43.20591 -80.87090 4718 ft 219 kts 253°
2026-04-28 01:58 43.20195 -80.89002 4670 ft 214 kts 255°
2026-04-28 01:58 43.19849 -80.91131 4611 ft 239 kts 259°
2026-04-28 01:58 43.19531 -80.93400 4530 ft 245 kts 247°
2026-04-28 01:59 43.18533 -80.95341 4261 ft 245 kts 230°
2026-04-28 01:59 43.17656 -80.96877 4124 ft 172 kts 233°
2026-04-28 01:59 43.16901 -80.98261 3976 ft 185 kts 236°
2026-04-28 01:59 43.16170 -80.99722 3881 ft 186 kts 234°
2026-04-28 02:00 43.15407 -81.01195 3850 ft 223 kts 235°
2026-04-28 02:00 43.14511 -81.02985 3711 ft 212 kts 237°
2026-04-28 02:00 43.13781 -81.04557 3649 ft 182 kts 239°
2026-04-28 02:00 43.13172 -81.05969 3472 ft 165 kts 238°
2026-04-28 02:01 43.12583 -81.07347 2776 ft 173 kts 244°
2026-04-28 02:01 43.12091 -81.08849 2359 ft 184 kts 245°
2026-04-28 02:01 43.11596 -81.10483 2383 ft 190 kts 254°
2026-04-28 02:01 43.10875 -81.12045 2229 ft 215 kts 213°
2026-04-28 02:02 43.09487 -81.12955 2424 ft 226 kts 208°
2026-04-28 02:02 43.08219 -81.14292 2311 ft 239 kts 221°
2026-04-28 02:02 43.07391 -81.16091 2394 ft 218 kts 231°
2026-04-28 02:02 43.06208 -81.16699 1855 ft 154 kts 216°
2026-04-28 02:03 43.05187 -81.17037 1235 ft 155 kts 154°
2026-04-28 02:03 43.04333 -81.16114 923 ft 157 kts 140°
2026-04-28 02:03 43.03514 -81.15156 1141 ft 210 kts 140°